Location: Astronomy Club of Akron Observatory
(40.9700°N, 81.5606°W)
Time: 10:47:00
(UTC-04:00)

ISS - Pass Details

Date: 21 July 2018
Orbit: 402 x 408 km, 51.6° (Epoch: 20 July)

Event Time Altitude Azimuth Distance (km) Brightness Sun altitude
Rises 23:02:43 0° 263° (W) 2,314 0.4 -19.5°
Reaches altitude 10° 23:05:00 10° 277° (W) 1,458 -0.4 -19.8°
Maximum altitude 23:07:49 26° 336° (NNW) 842 -1.5 -20.1°
Drops below altitude 10° 23:10:39 10° 36° (NE) 1,466 -0.8 -20.4°
Sets 23:12:57 0° 49° (NE) 2,329 0.1 -20.7°
